Regional Weather Roundup
Issued by NWS

Home | Current Version | Previous Version | Text Only | Print | Product List | Glossary On
Versions: 1 2 3 4 5 6 7 8 9 10 11 12 13 14 15 16 17 18 19 20 21 22 23 24 25 26 27 28 29 30 31 32 33 34 35 36 37 38 39 40 41 42 43 44 45 46 47 48 49 50
000
ASUS43 KDMX 271506
RWRIA

WEATHER ROUNDUP FOR IOWA
NATIONAL WEATHER SERVICE DES MOINES IA
1000 AM CDT SUN MAY 27 2018

NOTE: "FAIR" INDICATES FEW OR NO CLOUDS BELOW 12,000 FEET WITH NO
SIGNIFICANT WEATHER AND/OR OBSTRUCTIONS TO VISIBILITY.

* - THESE STATIONS ARE NOT NWS STATIONS...THUS NOT UNDER NWS
QUALITY CONTROL.  THEY ALSO DO NOT REPORT WEATHER SUCH
AS PRECIPITATION OR FOG.

IAZ001>003-012>014-020>022-031>034-043>046-271600-
   NORTHWEST IOWA

CITY           SKY/WX    TMP DP  RH WIND       PRES   REMARKS
CARROLL *      MOSUNNY   91  57  31 W13       29.86R HX  90
CHEROKEE *     MOSUNNY   85  65  51 SW3       29.84S HX  87
DENISON *      SUNNY     86  63  45 SW8       29.88R HX  87
LE MARS *      CLOUDY    90  55  31 SW5G12    29.83S HX  88
ORANGE CITY *  CLOUDY    88  57  35 W7        29.84F HX  86
SHELDON *      CLOUDY    86  57  37 MISG      29.83S HX  85
SIOUX CITY     SUNNY     85  64  49 SW3       29.83R HX  86
SPENCER        CLOUDY    89  60  37 S8        29.84S HX  89
STORM LAKE *   MOSUNNY   90  57  33 W13       29.86S HX  88
$$

IAZ055>058-069>071-079>083-090>094-271600-
   SOUTHWEST IOWA

CITY           SKY/WX    TMP DP  RH WIND       PRES   REMARKS
ATLANTIC *     SUNNY     88  63  42 VRB6      29.87R HX  88
AUDUBON *      SUNNY     86  63  45 CALM      29.88R HX  87
CLARINDA *     SUNNY     86  68  54 W8        29.89S HX  89
COUNCIL BLFS * SUNNY     84  70  61 SW7       29.87R HX  88
CRESTON *      SUNNY     88  64  45 W9G16     29.89S HX  89
HARLAN  *      SUNNY     88  64  45 W10       29.90R HX  89
LAMONI         SUNNY     84  68  58 W10       29.88R HX  87
RED OAK *      SUNNY     86  66  51 SW9       29.87S HX  88
SHENANDOAH *   SUNNY     86  66  51 SW9       29.88R HX  88
$$

IAZ047>049-059>061-072>074-084-271600-
   CENTRAL IOWA

CITY           SKY/WX    TMP DP  RH WIND       PRES   REMARKS
AMES           SUNNY     86  71  60 CALM      29.85R HX  91
ANKENY *       SUNNY     86  70  58 CALM      29.86R HX  90
BOONE *        SUNNY     91  61  35 CALM      29.85S HX  91
CHARITON *     SUNNY     82  72  69 MISG      29.86S HX  87
DES MOINES     MOSUNNY   86  70  58 CALM      29.85R HX  90
GRINNELL*      SUNNY     83  71  64 CALM      29.87S HX  88
KNOXVILLE *    SUNNY     84  70  61 SW5       29.85R HX  88
MARSHALLTOWN   SUNNY     85  69  58 CALM      29.85R HX  89
NEWTON *       SUNNY     86  72  62 CALM      29.86R HX  92
PELLA *        SUNNY     83  70  64 CALM      29.87R HX  87
PERRY *        FAIR      86  55  34 W5        29.86S HX  85
$$

IAZ004>006-015-016-023>025-035-036-271600-
   NORTH CENTRAL IOWA

CITY           SKY/WX    TMP DP  RH WIND       PRES   REMARKS
ALGONA *       CLOUDY    86  63  45 SE5       29.86R HX  87
CLARION *      CLOUDY    90  57  33 CALM      29.86S HX  88
ESTHERVILLE    CLOUDY    85  59  41 S10       29.84S HX  84
FORT DODGE *   MOSUNNY   88  62  41 CALM      29.85F HX  88
MASON CITY     MOSUNNY   90  60  36 CALM      29.87R HX  89
FOREST CITY *  FAIR      88  64  45 CALM      29.87R HX  89
WEBSTER CITY * MOSUNNY   90  59  35 CALM      29.83S HX  89
IOWA FALLS *   FAIR      87  67  50 CALM      29.87R HX  89
$$

IAZ007>011-017>019-026>030-037>042-050>054-066-271600-
   NORTHEAST IOWA

CITY           SKY/WX    TMP DP  RH WIND       PRES   REMARKS
CEDAR RAPIDS   FAIR      83  72  69 CALM      29.85R HX  88
CHARLES CITY * FAIR      82  63  51 CALM      29.87S HX  83
CLINTON *        N/A     86  71  60 VRB6      29.87S HX  91
DECORAH *      FAIR      79  70  73 CALM      29.86R HX  81
DUBUQUE        FAIR      83  71  67 SW6       29.87R HX  87
MONTICELLO *   FAIR      84  72  65 VRB5      29.85S HX  89
OELWEIN *      FAIR      82  68  61 CALM      29.87R HX  85
WATERLOO       FAIR      84  68  58 VRB3      29.84R HX  87
$$

IAZ064-065-067-068-078-271600-
   EAST CENTRAL IOWA

CITY           SKY/WX    TMP DP  RH WIND       PRES   REMARKS
DAVENPORT      FAIR      84  69  60 MISG      29.88R HX  88
IOWA CITY      FAIR      84  72  67 S5        29.86R HX  89
MT. PLEASANT * SUNNY     82  70  65 SW3       29.87R HX  86
MUSCATINE *    FAIR      84  72  65 CALM      29.86R HX  89
QUAD CITIES    FAIR      85  72  65 CALM      29.85S HX  91
$$

IAZ062-063-075>077-085>089-095>099-271600-
   SOUTHEAST IOWA

CITY           SKY/WX    TMP DP  RH WIND       PRES   REMARKS
BURLINGTON     SUNNY     84  74  71 CALM      29.87R HX  91
FAIRFIELD *    SUNNY     84  70  61 W3        29.86R HX  88
FORT MADISON * SUNNY     84  73  70 SW3       29.88R HX  91
KEOKUK *       SUNNY     86  73  66 VRB7      29.86S HX  93
OSKALOOSA *    FAIR      83  70  62 SW3       29.86S HX  87
CENTERVILLE *    N/A     86  73  66 CALM      29.88S HX  93
OTTUMWA        SUNNY     84  73  69 VRB3      29.86R HX  90
WASHINGTON *   SUNNY     84  75  74 SW5       29.87S HX  92
$$

ABBREVIATIONS USED IN REMARKS
   TC - TEMPERATURES IN CELSIUS
  WCI - WIND CHILL INDEX
   HX - HEAT INDEX
  VSB - VISIBILITY
$$




USA.gov is the U.S. government's official web portal to all federal, state and local government web resources and services.